contact:dominique.lefevre@mio.osupytheas.fr, maurice.libes@osupytheas.fr, didier.mallarino@osupytheas.fr
Project:EMSO http://www.emso-fr.org/EMSO-France
Depth: 2436.0 m
Title:EMSO Ligure Ouest : Data MII capteur CSTAR
DateTime,Latitude,Longitude,Instrument_Serial,Reference_Counts,Signal_Counts,Corrected_Signal_raw_counts,Calculated_Beam_c_inverse_meters,Internal_thermistor_counts
DateTime,Latitude,Longitude,Instrument_Serial,Reference_Counts,Signal_Counts,Corrected_Signal_raw_counts,Calculated_Beam_c_inverse_meters,Internal_thermistor_counts
2023-02-04T00:02:29,42.805,6.029,CST-1368DR,4395,4857,11743,01.140,551
2023-02-04T00:05:30,42.805,6.029,CST-1368DR,4395,4858,11745,01.139,551
2023-02-04T00:08:32,42.805,6.029,CST-1368DR,4395,4857,11743,01.140,551
2023-02-04T00:11:33,42.805,6.029,CST-1368DR,4395,4858,11745,01.139,551
2023-02-04T00:14:35,42.805,6.029,CST-1368DR,4395,4858,11746,01.139,551
2023-02-04T00:17:37,42.805,6.029,CST-1368DR,4395,4859,11747,01.139,551
2023-02-04T00:20:38,42.805,6.029,CST-1368DR,4395,4858,11745,01.139,551
2023-02-04T00:23:40,42.805,6.029,CST-1368DR,4395,4844,11712,01.151,551
2023-02-04T00:26:41,42.805,6.029,CST-1368DR,4395,4857,11743,01.140,551
2023-02-04T00:29:43,42.805,6.029,CST-1368DR,4395,4858,11745,01.139,551
2023-02-04T00:32:44,42.805,6.029,CST-1368DR,4395,4857,11743,01.140,551
2023-02-04T00:35:46,42.805,6.029,CST-1368DR,4395,4858,11745,01.139,551
2023-02-04T00:38:48,42.805,6.029,CST-1368DR,4395,4858,11746,01.139,551
2023-02-04T00:41:49,42.805,6.029,CST-1368DR,4395,4859,11747,01.139,551
2023-02-04T00:44:51,42.805,6.029,CST-1368DR,4395,4857,11743,01.140,551
2023-02-04T00:47:52,42.805,6.029,CST-1368DR,4395,4857,11744,01.140,551
2023-02-04T00:50:54,42.805,6.029,CST-1368DR,4395,4857,11742,01.140,551
2023-02-04T00:53:55,42.805,6.029,CST-1368DR,4395,4857,11743,01.140,551
2023-02-04T00:56:57,42.805,6.029,CST-1368DR,4395,4867,11766,01.132,551
2023-02-04T00:59:59,42.805,6.029,CST-1368DR,4395,4862,11756,01.136,551
2023-02-04T01:03:00,42.805,6.029,CST-1368DR,4395,4856,11742,01.140,551
2023-02-04T01:06:02,42.805,6.029,CST-1368DR,4395,4855,11738,01.142,551
2023-02-04T01:09:03,42.805,6.029,CST-1368DR,4395,4856,11742,01.140,551
2023-02-04T01:12:05,42.805,6.029,CST-1368DR,4395,4854,11735,01.143,551
2023-02-04T01:15:07,42.805,6.029,CST-1368DR,4395,4857,11742,01.140,551
2023-02-04T01:18:08,42.805,6.029,CST-1368DR,4395,4856,11740,01.141,551
2023-02-04T01:21:10,42.805,6.029,CST-1368DR,4395,4855,11738,01.142,551
2023-02-04T01:24:11,42.805,6.029,CST-1368DR,4395,4854,11737,01.142,551
2023-02-04T01:27:13,42.805,6.029,CST-1368DR,4395,4855,11738,01.142,551
2023-02-04T01:30:14,42.805,6.029,CST-1368DR,4395,4853,11733,01.144,551
2023-02-04T01:33:16,42.805,6.029,CST-1368DR,4395,4851,11729,01.145,551
2023-02-04T01:36:18,42.805,6.029,CST-1368DR,4395,4852,11731,01.144,551
2023-02-04T01:39:19,42.805,6.029,CST-1368DR,4395,4853,11734,01.143,551
2023-02-04T01:42:21,42.805,6.029,CST-1368DR,4395,4852,11731,01.144,551
2023-02-04T01:45:22,42.805,6.029,CST-1368DR,4395,4852,11731,01.144,551
2023-02-04T01:48:24,42.805,6.029,CST-1368DR,4395,4851,11728,01.145,551
2023-02-04T01:51:26,42.805,6.029,CST-1368DR,4395,4852,11730,01.145,551
2023-02-04T01:54:27,42.805,6.029,CST-1368DR,4395,4849,11724,01.147,551
2023-02-04T01:57:29,42.805,6.029,CST-1368DR,4395,4851,11728,01.145,551
2023-02-04T02:00:30,42.805,6.029,CST-1368DR,4395,4852,11731,01.144,551
2023-02-04T02:03:32,42.805,6.029,CST-1368DR,4395,4851,11729,01.145,551
2023-02-04T02:06:33,42.805,6.029,CST-1368DR,4395,4851,11729,01.145,551
2023-02-04T02:09:35,42.805,6.029,CST-1368DR,4395,4851,11729,01.145,551
2023-02-04T02:12:37,42.805,6.029,CST-1368DR,4395,4851,11730,01.145,551
2023-02-04T02:15:38,42.805,6.029,CST-1368DR,4395,4853,11734,01.143,551
2023-02-04T02:18:40,42.805,6.029,CST-1368DR,4395,4852,11730,01.145,551
2023-02-04T02:21:41,42.805,6.029,CST-1368DR,4395,4852,11731,01.144,551
2023-02-04T02:24:43,42.805,6.029,CST-1368DR,4395,4851,11729,01.145,551
2023-02-04T02:27:44,42.805,6.029,CST-1368DR,4395,4851,11730,01.145,551
2023-02-04T02:30:46,42.805,6.029,CST-1368DR,4395,4852,11731,01.144,551
2023-02-04T02:33:48,42.805,6.029,CST-1368DR,4395,4851,11730,01.145,551
2023-02-04T02:36:49,42.805,6.029,CST-1368DR,4395,4851,11728,01.145,551
2023-02-04T02:39:51,42.805,6.029,CST-1368DR,4395,4851,11730,01.145,551
2023-02-04T02:42:52,42.805,6.029,CST-1368DR,4395,4851,11728,01.145,551
2023-02-04T02:45:54,42.805,6.029,CST-1368DR,4395,4852,11731,01.144,551
2023-02-04T02:48:55,42.805,6.029,CST-1368DR,4395,4852,11731,01.144,551
2023-02-04T02:51:57,42.805,6.029,CST-1368DR,4395,4857,11743,01.140,551
2023-02-04T02:54:59,42.805,6.029,CST-1368DR,4395,4852,11731,01.144,551
2023-02-04T02:58:00,42.805,6.029,CST-1368DR,4395,4852,11732,01.144,551
2023-02-04T03:01:02,42.805,6.029,CST-1368DR,4395,4852,11732,01.144,551
2023-02-04T03:04:03,42.805,6.029,CST-1368DR,4395,4845,11714,01.150,551
2023-02-04T03:07:05,42.805,6.029,CST-1368DR,4395,4851,11728,01.145,551
2023-02-04T03:10:07,42.805,6.029,CST-1368DR,4395,4853,11733,01.144,551
2023-02-04T03:13:08,42.805,6.029,CST-1368DR,4395,4854,11735,01.143,551
2023-02-04T03:16:10,42.805,6.029,CST-1368DR,4395,4854,11735,01.143,551
2023-02-04T03:19:11,42.805,6.029,CST-1368DR,4395,4880,11798,01.121,551
2023-02-04T03:22:13,42.805,6.029,CST-1368DR,4395,4879,11797,01.122,551
2023-02-04T03:25:14,42.805,6.029,CST-1368DR,4395,4877,11792,01.123,551
2023-02-04T03:28:16,42.805,6.029,CST-1368DR,4395,4879,11797,01.122,551
2023-02-04T03:31:18,42.805,6.029,CST-1368DR,4395,4878,11794,01.123,551
2023-02-04T03:34:19,42.805,6.029,CST-1368DR,4395,4879,11796,01.122,551
2023-02-04T03:37:21,42.805,6.029,CST-1368DR,4395,4879,11797,01.122,551
2023-02-04T03:40:22,42.805,6.029,CST-1368DR,4395,4880,11800,01.121,551
2023-02-04T03:43:24,42.805,6.029,CST-1368DR,4395,4880,11798,01.121,551
2023-02-04T03:46:25,42.805,6.029,CST-1368DR,4395,4879,11797,01.122,551
2023-02-04T03:49:27,42.805,6.029,CST-1368DR,4395,4880,11799,01.121,551
2023-02-04T03:52:29,42.805,6.029,CST-1368DR,4395,4879,11796,01.122,551
2023-02-04T03:55:30,42.805,6.029,CST-1368DR,4395,4880,11798,01.121,551
2023-02-04T03:58:32,42.805,6.029,CST-1368DR,4395,4879,11797,01.122,551
2023-02-04T04:01:33,42.805,6.029,CST-1368DR,4395,4879,11796,01.122,551
2023-02-04T04:04:35,42.805,6.029,CST-1368DR,4395,4879,11797,01.122,551
2023-02-04T04:07:37,42.805,6.029,CST-1368DR,4395,4878,11794,01.123,551
2023-02-04T04:10:38,42.805,6.029,CST-1368DR,4395,4878,11795,01.122,551
2023-02-04T04:13:40,42.805,6.029,CST-1368DR,4395,4879,11797,01.122,551
2023-02-04T04:16:41,42.805,6.029,CST-1368DR,4395,4880,11800,01.121,551
2023-02-04T04:19:43,42.805,6.029,CST-1368DR,4395,4880,11798,01.121,551
2023-02-04T04:22:44,42.805,6.029,CST-1368DR,4395,4879,11796,01.122,551
2023-02-04T04:25:46,42.805,6.029,CST-1368DR,4395,4879,11795,01.122,551
2023-02-04T04:28:48,42.805,6.029,CST-1368DR,4395,4879,11795,01.122,551
2023-02-04T04:31:49,42.805,6.029,CST-1368DR,4395,4878,11795,01.122,551
2023-02-04T04:34:51,42.805,6.029,CST-1368DR,4395,4878,11795,01.122,551
2023-02-04T04:37:52,42.805,6.029,CST-1368DR,4395,4876,11789,01.125,551
2023-02-04T04:40:54,42.805,6.029,CST-1368DR,4395,4879,11797,01.122,551
2023-02-04T04:43:55,42.805,6.029,CST-1368DR,4395,4879,11796,01.122,551
2023-02-04T04:46:57,42.805,6.029,CST-1368DR,4395,4879,11797,01.122,551
2023-02-04T04:49:59,42.805,6.029,CST-1368DR,4395,4879,11795,01.122,551
2023-02-04T04:53:00,42.805,6.029,CST-1368DR,4395,4877,11792,01.123,551
2023-02-04T04:56:02,42.805,6.029,CST-1368DR,4395,4877,11792,01.123,551
2023-02-04T04:59:03,42.805,6.029,CST-1368DR,4395,4878,11794,01.123,551
2023-02-04T05:02:05,42.805,6.029,CST-1368DR,4395,4879,11797,01.122,551
2023-02-04T05:05:07,42.805,6.029,CST-1368DR,4395,4879,11795,01.122,551
2023-02-04T05:08:08,42.805,6.029,CST-1368DR,4395,4878,11794,01.123,551
2023-02-04T05:11:10,42.805,6.029,CST-1368DR,4395,4879,11797,01.122,551
2023-02-04T05:14:11,42.805,6.029,CST-1368DR,4395,4879,11797,01.122,551
2023-02-04T05:17:13,42.805,6.029,CST-1368DR,4395,4878,11794,01.123,551
2023-02-04T05:20:14,42.805,6.029,CST-1368DR,4395,4880,11798,01.121,551
2023-02-04T05:23:16,42.805,6.029,CST-1368DR,4395,4879,11795,01.122,551
2023-02-04T05:26:18,42.805,6.029,CST-1368DR,4395,4878,11794,01.123,551
2023-02-04T05:29:19,42.805,6.029,CST-1368DR,4395,4878,11795,01.122,551
2023-02-04T05:32:21,42.805,6.029,CST-1368DR,4395,4877,11792,01.123,551
2023-02-04T05:35:22,42.805,6.029,CST-1368DR,4395,4879,11796,01.122,551
2023-02-04T05:38:24,42.805,6.029,CST-1368DR,4395,4877,11792,01.123,551
2023-02-04T05:41:25,42.805,6.029,CST-1368DR,4395,4878,11794,01.123,551
2023-02-04T05:44:27,42.805,6.029,CST-1368DR,4395,4878,11795,01.122,551
2023-02-04T05:47:29,42.805,6.029,CST-1368DR,4395,4877,11792,01.123,551
2023-02-04T05:50:30,42.805,6.029,CST-1368DR,4395,4877,11792,01.123,551
2023-02-04T05:53:32,42.805,6.029,CST-1368DR,4395,4878,11794,01.123,551
2023-02-04T05:56:33,42.805,6.029,CST-1368DR,4395,4879,11796,01.122,551
2023-02-04T05:59:35,42.805,6.029,CST-1368DR,4395,4879,11797,01.122,551
2023-02-04T06:02:37,42.805,6.029,CST-1368DR,4395,4879,11797,01.122,551
2023-02-04T06:05:38,42.805,6.029,CST-1368DR,4395,4880,11798,01.121,551
2023-02-04T06:08:40,42.805,6.029,CST-1368DR,4395,4880,11798,01.121,551
2023-02-04T06:11:41,42.805,6.029,CST-1368DR,4395,4879,11796,01.122,551
2023-02-04T06:14:43,42.805,6.029,CST-1368DR,4395,4879,11795,01.122,551
2023-02-04T06:17:44,42.805,6.029,CST-1368DR,4395,4879,11797,01.122,551
2023-02-04T06:20:46,42.805,6.029,CST-1368DR,4395,4879,11797,01.122,551
2023-02-04T06:23:48,42.805,6.029,CST-1368DR,4395,4879,11797,01.122,551
2023-02-04T06:26:49,42.805,6.029,CST-1368DR,4395,4878,11795,01.122,551
2023-02-04T06:29:51,42.805,6.029,CST-1368DR,4395,4878,11794,01.123,551
2023-02-04T06:32:52,42.805,6.029,CST-1368DR,4395,4879,11796,01.122,551
2023-02-04T06:35:54,42.805,6.029,CST-1368DR,4395,4880,11798,01.121,551
2023-02-04T06:38:55,42.805,6.029,CST-1368DR,4395,4879,11797,01.122,551
2023-02-04T06:41:57,42.805,6.029,CST-1368DR,4395,4880,11799,01.121,551
2023-02-04T06:44:59,42.805,6.029,CST-1368DR,4395,4879,11797,01.122,551
2023-02-04T06:48:00,42.805,6.029,CST-1368DR,4395,4880,11798,01.121,551
2023-02-04T06:51:02,42.805,6.029,CST-1368DR,4395,4879,11796,01.122,551
2023-02-04T06:54:03,42.805,6.029,CST-1368DR,4395,4879,11797,01.122,551
2023-02-04T06:57:05,42.805,6.029,CST-1368DR,4395,4880,11799,01.121,551
2023-02-04T07:00:06,42.805,6.029,CST-1368DR,4395,4880,11799,01.121,551
2023-02-04T07:03:08,42.805,6.029,CST-1368DR,4395,4879,11797,01.122,551
2023-02-04T07:06:10,42.805,6.029,CST-1368DR,4395,4879,11797,01.122,551
2023-02-04T07:09:11,42.805,6.029,CST-1368DR,4395,4879,11796,01.122,551
2023-02-04T07:12:13,42.805,6.029,CST-1368DR,4395,4880,11798,01.121,551
2023-02-04T07:15:14,42.805,6.029,CST-1368DR,4395,4879,11797,01.122,551
2023-02-04T07:18:16,42.805,6.029,CST-1368DR,4395,4879,11797,01.122,551
2023-02-04T07:21:18,42.805,6.029,CST-1368DR,4395,4881,11800,01.121,551
2023-02-04T07:24:19,42.805,6.029,CST-1368DR,4395,4881,11800,01.121,551
2023-02-04T07:27:21,42.805,6.029,CST-1368DR,4395,4879,11797,01.122,551
2023-02-04T07:30:22,42.805,6.029,CST-1368DR,4395,4880,11798,01.121,551
2023-02-04T07:33:24,42.805,6.029,CST-1368DR,4395,4880,11798,01.121,551
2023-02-04T07:36:25,42.805,6.029,CST-1368DR,4395,4879,11797,01.122,551
2023-02-04T07:39:27,42.805,6.029,CST-1368DR,4395,4880,11798,01.121,551
2023-02-04T07:42:29,42.805,6.029,CST-1368DR,4395,4878,11794,01.123,551
2023-02-04T07:45:30,42.805,6.029,CST-1368DR,4395,4879,11795,01.122,551
2023-02-04T07:48:32,42.805,6.029,CST-1368DR,4395,4876,11789,01.125,551
2023-02-04T07:51:33,42.805,6.029,CST-1368DR,4395,4874,11783,01.127,551
2023-02-04T07:54:35,42.805,6.029,CST-1368DR,4395,4872,11780,01.128,551
2023-02-04T07:57:36,42.805,6.029,CST-1368DR,4395,4872,11780,01.128,551
2023-02-04T08:00:38,42.805,6.029,CST-1368DR,4395,4869,11772,01.130,551
2023-02-04T08:03:40,42.805,6.029,CST-1368DR,4395,4870,11775,01.129,551
2023-02-04T08:06:41,42.805,6.029,CST-1368DR,4395,4867,11768,01.132,551
2023-02-04T08:09:43,42.805,6.029,CST-1368DR,4395,4869,11771,01.131,551
2023-02-04T08:12:44,42.805,6.029,CST-1368DR,4395,4867,11767,01.132,551
2023-02-04T08:15:46,42.805,6.029,CST-1368DR,4395,4879,11797,01.122,551
2023-02-04T08:18:47,42.805,6.029,CST-1368DR,4395,4878,11795,01.122,551
2023-02-04T08:21:49,42.805,6.029,CST-1368DR,4395,4865,11762,01.134,551
2023-02-04T08:24:51,42.805,6.029,CST-1368DR,4395,4863,11757,01.135,551
2023-02-04T08:27:52,42.805,6.029,CST-1368DR,4395,4863,11758,01.135,551
2023-02-04T08:30:54,42.805,6.029,CST-1368DR,4395,4863,11759,01.135,551
2023-02-04T08:33:55,42.805,6.029,CST-1368DR,4395,4861,11754,01.136,551
2023-02-04T08:36:57,42.805,6.029,CST-1368DR,4395,4859,11748,01.138,551
2023-02-04T08:39:59,42.805,6.029,CST-1368DR,4395,4864,11759,01.135,551
2023-02-04T08:43:00,42.805,6.029,CST-1368DR,4395,4866,11764,01.133,551
2023-02-04T08:46:02,42.805,6.029,CST-1368DR,4395,4861,11754,01.136,551
2023-02-04T08:49:03,42.805,6.029,CST-1368DR,4395,4858,11746,01.139,551
2023-02-04T08:52:05,42.805,6.029,CST-1368DR,4395,4856,11740,01.141,551
2023-02-04T08:55:06,42.805,6.029,CST-1368DR,4395,4868,11771,01.131,551
2023-02-04T08:58:08,42.805,6.029,CST-1368DR,4395,4867,11768,01.132,551
2023-02-04T09:01:10,42.805,6.029,CST-1368DR,4395,4867,11767,01.132,551
2023-02-04T09:04:11,42.805,6.029,CST-1368DR,4395,4855,11739,01.142,551
2023-02-04T09:07:13,42.805,6.029,CST-1368DR,4395,4856,11740,01.141,551
2023-02-04T09:10:14,42.805,6.029,CST-1368DR,4395,4855,11737,01.142,551
2023-02-04T09:13:16,42.805,6.029,CST-1368DR,4395,4858,11746,01.139,551
2023-02-04T09:16:17,42.805,6.029,CST-1368DR,4395,4853,11734,01.143,551
2023-02-04T09:19:19,42.805,6.029,CST-1368DR,4395,4855,11739,01.142,551
2023-02-04T09:22:21,42.805,6.029,CST-1368DR,4395,4861,11754,01.136,551
2023-02-04T09:25:22,42.805,6.029,CST-1368DR,4395,4864,11759,01.135,551
2023-02-04T09:28:24,42.805,6.029,CST-1368DR,4395,4859,11748,01.138,551
2023-02-04T09:31:25,42.805,6.029,CST-1368DR,4395,4858,11746,01.139,551
2023-02-04T09:34:27,42.805,6.029,CST-1368DR,4395,4858,11745,01.139,551
2023-02-04T09:37:29,42.805,6.029,CST-1368DR,4395,4862,11756,01.136,551
2023-02-04T09:40:30,42.805,6.029,CST-1368DR,4395,4861,11753,01.137,551
2023-02-04T09:43:32,42.805,6.029,CST-1368DR,4395,4858,11746,01.139,551
2023-02-04T09:46:33,42.805,6.029,CST-1368DR,4395,4857,11743,01.140,551
2023-02-04T09:49:35,42.805,6.029,CST-1368DR,4395,4856,11742,01.140,551
2023-02-04T09:52:36,42.805,6.029,CST-1368DR,4395,4863,11758,01.135,551
2023-02-04T09:55:38,42.805,6.029,CST-1368DR,4395,4863,11759,01.135,551
2023-02-04T09:58:40,42.805,6.029,CST-1368DR,4395,4857,11743,01.140,551
2023-02-04T10:01:41,42.805,6.029,CST-1368DR,4395,4865,11763,01.133,551
2023-02-04T10:04:43,42.805,6.029,CST-1368DR,4395,4856,11742,01.140,551
2023-02-04T10:07:44,42.805,6.029,CST-1368DR,4395,4857,11744,01.140,551
2023-02-04T10:10:46,42.805,6.029,CST-1368DR,4395,4858,11746,01.139,551
2023-02-04T10:13:47,42.805,6.029,CST-1368DR,4395,4856,11740,01.141,551
2023-02-04T10:16:49,42.805,6.029,CST-1368DR,4394,4857,11745,01.139,551
2023-02-04T10:19:51,42.805,6.029,CST-1368DR,4395,4853,11734,01.143,551
2023-02-04T10:22:52,42.805,6.029,CST-1368DR,4395,4852,11732,01.144,551
2023-02-04T10:25:54,42.805,6.029,CST-1368DR,4395,4854,11736,01.143,551
2023-02-04T10:28:55,42.805,6.029,CST-1368DR,4395,4851,11728,01.145,551
2023-02-04T10:31:57,42.805,6.029,CST-1368DR,4395,4851,11730,01.145,551
2023-02-04T10:34:59,42.805,6.029,CST-1368DR,4394,4850,11729,01.145,551
2023-02-04T10:38:00,42.805,6.029,CST-1368DR,4394,4852,11733,01.144,551
2023-02-04T10:41:02,42.805,6.029,CST-1368DR,4394,4855,11740,01.141,551
2023-02-04T10:44:03,42.805,6.029,CST-1368DR,4394,4853,11737,01.142,551
2023-02-04T10:47:05,42.805,6.029,CST-1368DR,4395,4852,11731,01.144,551
2023-02-04T10:50:06,42.805,6.029,CST-1368DR,4394,4853,11736,01.143,551
2023-02-04T10:53:08,42.805,6.029,CST-1368DR,4394,4848,11723,01.147,551
2023-02-04T10:56:10,42.805,6.029,CST-1368DR,4394,4853,11736,01.143,551
2023-02-04T10:59:11,42.805,6.029,CST-1368DR,4394,4849,11726,01.146,551
2023-02-04T11:02:13,42.805,6.029,CST-1368DR,4394,4850,11728,01.145,551
2023-02-04T11:05:14,42.805,6.029,CST-1368DR,4395,4852,11731,01.144,551
2023-02-04T11:08:16,42.805,6.029,CST-1368DR,4394,4852,11733,01.144,551
2023-02-04T11:11:17,42.805,6.029,CST-1368DR,4394,4851,11731,01.144,551
2023-02-04T11:14:19,42.805,6.029,CST-1368DR,4394,4852,11733,01.144,551
2023-02-04T11:17:21,42.805,6.029,CST-1368DR,4394,4827,11673,01.164,551
2023-02-04T11:20:22,42.805,6.029,CST-1368DR,4394,4824,11665,01.167,551
2023-02-04T11:23:24,42.805,6.029,CST-1368DR,4394,4841,11706,01.153,551
2023-02-04T11:26:25,42.805,6.029,CST-1368DR,4394,4829,11678,01.162,551
2023-02-04T11:29:27,42.805,6.029,CST-1368DR,4394,4831,11683,01.161,551
2023-02-04T11:32:29,42.805,6.029,CST-1368DR,4394,4824,11666,01.166,551
2023-02-04T11:35:30,42.805,6.029,CST-1368DR,4394,4833,11687,01.159,551
2023-02-04T11:38:32,42.805,6.029,CST-1368DR,4394,4832,11686,01.160,551
2023-02-04T11:41:33,42.805,6.029,CST-1368DR,4394,4836,11696,01.156,551
2023-02-04T11:44:35,42.805,6.029,CST-1368DR,4394,4830,11680,01.162,551
2023-02-04T11:47:36,42.805,6.029,CST-1368DR,4394,4835,11693,01.157,551
2023-02-04T11:50:38,42.805,6.029,CST-1368DR,4394,4834,11690,01.158,551
2023-02-04T11:53:40,42.805,6.029,CST-1368DR,4394,4837,11696,01.156,551
2023-02-04T11:56:41,42.805,6.029,CST-1368DR,4394,4823,11663,01.167,551
2023-02-04T11:59:43,42.805,6.029,CST-1368DR,4394,4838,11699,01.155,551
2023-02-04T12:02:44,42.805,6.029,CST-1368DR,4394,4833,11689,01.159,551
2023-02-04T12:05:46,42.805,6.029,CST-1368DR,4394,4834,11690,01.158,551
2023-02-04T12:08:47,42.805,6.029,CST-1368DR,4394,4829,11677,01.163,551
2023-02-04T12:11:49,42.805,6.029,CST-1368DR,4394,4831,11683,01.161,551
2023-02-04T12:14:51,42.805,6.029,CST-1368DR,4394,4839,11702,01.154,551
2023-02-04T12:17:52,42.805,6.029,CST-1368DR,4394,4831,11683,01.161,551
2023-02-04T12:20:54,42.805,6.029,CST-1368DR,4394,4825,11669,01.165,551
2023-02-04T12:23:55,42.805,6.029,CST-1368DR,4394,4831,11684,01.160,551
2023-02-04T12:26:57,42.805,6.029,CST-1368DR,4394,4838,11699,01.155,551
2023-02-04T12:29:58,42.805,6.029,CST-1368DR,4394,4838,11700,01.155,551
2023-02-04T12:33:00,42.805,6.029,CST-1368DR,4394,4831,11683,01.161,551
2023-02-04T12:36:02,42.805,6.029,CST-1368DR,4394,4841,11707,01.152,551
2023-02-04T12:39:03,42.805,6.029,CST-1368DR,4394,4828,11676,01.163,551
2023-02-04T12:42:05,42.805,6.029,CST-1368DR,4394,4825,11669,01.165,551
2023-02-04T12:45:06,42.805,6.029,CST-1368DR,4394,4827,11673,01.164,551
2023-02-04T12:48:08,42.805,6.029,CST-1368DR,4394,4831,11684,01.160,551
2023-02-04T12:51:10,42.805,6.029,CST-1368DR,4394,4836,11694,01.157,551
2023-02-04T12:54:11,42.805,6.029,CST-1368DR,4394,4833,11687,01.159,551
2023-02-04T12:57:13,42.805,6.029,CST-1368DR,4394,4831,11683,01.161,551
2023-02-04T13:00:14,42.805,6.029,CST-1368DR,4394,4839,11701,01.154,551
2023-02-04T13:03:16,42.805,6.029,CST-1368DR,4394,4838,11699,01.155,551
2023-02-04T13:06:17,42.805,6.029,CST-1368DR,4394,4834,11690,01.158,551
2023-02-04T13:09:19,42.805,6.029,CST-1368DR,4394,4833,11689,01.159,551
2023-02-04T13:12:21,42.805,6.029,CST-1368DR,4394,4831,11683,01.161,551
2023-02-04T13:15:22,42.805,6.029,CST-1368DR,4394,4831,11682,01.161,551
2023-02-04T13:18:24,42.805,6.029,CST-1368DR,4394,4834,11690,01.158,551
2023-02-04T13:21:25,42.805,6.029,CST-1368DR,4394,4836,11696,01.156,551
2023-02-04T13:24:27,42.805,6.029,CST-1368DR,4394,4832,11684,01.160,551
2023-02-04T13:27:28,42.805,6.029,CST-1368DR,4394,4833,11688,01.159,551
2023-02-04T13:30:30,42.805,6.029,CST-1368DR,4394,4833,11687,01.159,551
2023-02-04T13:33:32,42.805,6.029,CST-1368DR,4394,4852,11735,01.143,551
2023-02-04T13:36:33,42.805,6.029,CST-1368DR,4394,4849,11726,01.146,551
2023-02-04T13:39:35,42.805,6.029,CST-1368DR,4394,4854,11738,01.142,551
2023-02-04T13:42:36,42.805,6.029,CST-1368DR,4394,4854,11738,01.142,551
2023-02-04T13:45:38,42.805,6.029,CST-1368DR,4394,4853,11737,01.142,551
2023-02-04T13:48:40,42.805,6.029,CST-1368DR,4394,4853,11736,01.143,551
2023-02-04T13:51:41,42.805,6.029,CST-1368DR,4394,4856,11743,01.140,551
2023-02-04T13:54:43,42.805,6.029,CST-1368DR,4394,4857,11746,01.139,551
2023-02-04T13:57:44,42.805,6.029,CST-1368DR,4394,4857,11745,01.139,551
2023-02-04T14:00:46,42.805,6.029,CST-1368DR,4394,4854,11738,01.142,551
2023-02-04T14:03:47,42.805,6.029,CST-1368DR,4394,4853,11736,01.143,551
2023-02-04T14:06:49,42.805,6.029,CST-1368DR,4394,4856,11744,01.140,551
2023-02-04T14:09:51,42.805,6.029,CST-1368DR,4394,4857,11745,01.139,551
2023-02-04T14:12:52,42.805,6.029,CST-1368DR,4394,4857,11747,01.139,551
2023-02-04T14:15:54,42.805,6.029,CST-1368DR,4394,4849,11726,01.146,551
2023-02-04T14:18:55,42.805,6.029,CST-1368DR,4394,4857,11746,01.139,551
2023-02-04T14:21:57,42.805,6.029,CST-1368DR,4394,4857,11747,01.139,551
2023-02-04T14:24:58,42.805,6.029,CST-1368DR,4394,4854,11739,01.142,551
2023-02-04T14:28:00,42.805,6.029,CST-1368DR,4394,4855,11741,01.141,551
2023-02-04T14:31:02,42.805,6.029,CST-1368DR,4394,4854,11739,01.142,551
2023-02-04T14:34:03,42.805,6.029,CST-1368DR,4394,4856,11742,01.140,551
2023-02-04T14:37:05,42.805,6.029,CST-1368DR,4394,4856,11744,01.140,551
2023-02-04T14:40:06,42.805,6.029,CST-1368DR,4394,4855,11742,01.140,551
2023-02-04T14:43:08,42.805,6.029,CST-1368DR,4394,4856,11744,01.140,551
2023-02-04T14:46:10,42.805,6.029,CST-1368DR,4394,4859,11750,01.138,551
2023-02-04T14:49:11,42.805,6.029,CST-1368DR,4394,4856,11744,01.140,551
2023-02-04T14:52:13,42.805,6.029,CST-1368DR,4394,4855,11740,01.141,551
2023-02-04T14:55:14,42.805,6.029,CST-1368DR,4394,4855,11741,01.141,551
2023-02-04T14:58:16,42.805,6.029,CST-1368DR,4394,4859,11750,01.138,551
2023-02-04T15:01:17,42.805,6.029,CST-1368DR,4394,4857,11745,01.139,551
2023-02-04T15:04:19,42.805,6.029,CST-1368DR,4394,4856,11743,01.140,551
2023-02-04T15:07:21,42.805,6.029,CST-1368DR,4394,4856,11744,01.140,551
2023-02-04T15:10:22,42.805,6.029,CST-1368DR,4394,4853,11736,01.143,551
2023-02-04T15:13:24,42.805,6.029,CST-1368DR,4394,4855,11742,01.140,551
2023-02-04T15:16:25,42.805,6.029,CST-1368DR,4394,4856,11743,01.140,551
2023-02-04T15:19:27,42.805,6.029,CST-1368DR,4394,4857,11745,01.139,551
2023-02-04T15:22:28,42.805,6.029,CST-1368DR,4394,4857,11747,01.139,551
2023-02-04T15:25:30,42.805,6.029,CST-1368DR,4394,4862,11758,01.135,551
2023-02-04T15:28:32,42.805,6.029,CST-1368DR,4394,4859,11750,01.138,551
2023-02-04T15:31:33,42.805,6.029,CST-1368DR,4394,4856,11743,01.140,551
2023-02-04T15:34:35,42.805,6.029,CST-1368DR,4394,4858,11747,01.139,551
2023-02-04T15:37:36,42.805,6.029,CST-1368DR,4394,4858,11748,01.138,551
2023-02-04T15:40:38,42.805,6.029,CST-1368DR,4394,4857,11746,01.139,551
2023-02-04T15:43:39,42.805,6.029,CST-1368DR,4394,4858,11747,01.139,551
2023-02-04T15:46:41,42.805,6.029,CST-1368DR,4394,4857,11745,01.139,551
2023-02-04T15:49:43,42.805,6.029,CST-1368DR,4394,4858,11748,01.138,551
2023-02-04T15:52:44,42.805,6.029,CST-1368DR,4394,4858,11747,01.139,551
2023-02-04T15:55:46,42.805,6.029,CST-1368DR,4394,4859,11751,01.137,551
2023-02-04T15:58:47,42.805,6.029,CST-1368DR,4394,4859,11751,01.137,551
2023-02-04T16:01:49,42.805,6.029,CST-1368DR,4394,4858,11749,01.138,551
2023-02-04T16:04:51,42.805,6.029,CST-1368DR,4394,4859,11750,01.138,551
2023-02-04T16:07:52,42.805,6.029,CST-1368DR,4394,4857,11745,01.139,551
2023-02-04T16:10:54,42.805,6.029,CST-1368DR,4394,4857,11745,01.139,551
2023-02-04T16:13:55,42.805,6.029,CST-1368DR,4394,4859,11750,01.138,551
2023-02-04T16:16:57,42.805,6.029,CST-1368DR,4394,4859,11750,01.138,550
2023-02-04T16:19:58,42.805,6.029,CST-1368DR,4394,4858,11749,01.138,551
2023-02-04T16:23:00,42.805,6.029,CST-1368DR,4394,4857,11745,01.139,551
2023-02-04T16:26:02,42.805,6.029,CST-1368DR,4394,4855,11741,01.141,551
2023-02-04T16:29:03,42.805,6.029,CST-1368DR,4394,4857,11746,01.139,551
2023-02-04T16:32:05,42.805,6.029,CST-1368DR,4394,4858,11748,01.138,551
2023-02-04T16:35:06,42.805,6.029,CST-1368DR,4394,4850,11728,01.145,551
2023-02-04T16:38:08,42.805,6.029,CST-1368DR,4394,4859,11750,01.138,551